KD5OH Weather Reports


Display with metric or nautical units.
time (UTC)temp
F
wind
direction
speed
MPH
gust
MPH
rain 1hr
in
rain 24hr
in
rain mn
in
humidity
%
barometer
mb
20260506213128 74 214 7.0 13.0 0.00 0.00 0.00 12 1016.1
20260506211702 73 35 2.0 11.0 0.00 0.00 0.00 13 1016.2
20260506210136 75 30 2.0 7.0 0.00 0.00 0.00 12 1016.4
20260506204628 74 294 1.0 9.0 0.00 0.00 0.00 12 1016.5
20260506203123 73 272 6.0 11.0 0.00 0.00 0.00 12 1016.7
20260506201636 73 300 5.0 15.0 0.00 0.00 0.00 13 1016.8
20260506200130 73 251 5.0 13.0 0.00 0.00 0.00 10 1016.9
20260506194643 72 272 1.0 8.0 0.00 0.00 0.00 15 1016.8
20260506193131 72 206 6.0 10.0 0.00 0.00 0.00 15 1017.0
20260506191629 72 298 5.0 13.0 0.00 0.00 0.00 14 1017.1
20260506190121 71 253 6.0 13.0 0.00 0.00 0.00 14 1017.2
20260506184634 70 247 4.0 11.0 0.00 0.00 0.00 16 1017.3
20260506183126 70 346 8.0 16.0 0.00 0.00 0.00 15 1017.5
20260506181636 69 216 4.0 11.0 0.00 0.00 0.00 14 1017.7
20260506180130 69 293 4.0 11.0 0.00 0.00 0.00 18 1017.9
20260506174620 69 259 6.0 14.0 0.00 0.00 0.00 17 1017.9
20260506173155 69 332 7.0 12.0 0.00 0.00 0.00 17 1018.0
20260506171622 68 267 7.0 12.0 0.00 0.00 0.00 18 1018.1
20260506170132 68 269 6.0 10.0 0.00 0.00 0.00 21 1018.2
20260506164624 67 277 8.0 16.0 0.00 0.00 0.00 22 1018.2
20260506163134 67 106 4.0 8.0 0.00 0.00 0.00 23 1018.3
20260506161646 66 221 2.0 10.0 0.00 0.00 0.00 26 1018.2
20260506160136 66 223 4.0 17.0 0.00 0.00 0.00 27 1018.2
20260506154627 65 224 5.0 10.0 0.00 0.00 0.00 28 1018.1
20260506153137 64 110 2.0 5.0 0.00 0.00 0.00 28 1018.2
20260506151627 64 260 2.0 8.0 0.00 0.00 0.00 29 1018.3
20260506150141 64 296 3.0 7.0 0.00 0.00 0.00 28 1018.3
20260506144650 64 322 1.0 7.0 0.00 0.00 0.00 30 1018.2
20260506143124 64 311 2.0 5.0 0.00 0.00 0.00 30 1018.3
20260506141633 63 248 2.0 4.0 0.00 0.00 0.00 30 1018.3
20260506140123 63 286 2.0 6.0 0.00 0.00 0.00 30 1018.1
20260506134638 62 312 1.0 4.0 0.00 0.00 0.00 33 1018.2
20260506133130 61 239 0.0 1.0 0.00 0.00 0.00 38 1018.1
20260506131644 55 118 0.0 1.0 0.00 0.00 0.00 45 1018.0
20260506130135 52 263 0.0 1.0 0.00 0.00 0.00 48 1017.9
20260506124626 51 32 0.0 2.0 0.00 0.00 0.00 46 1017.6
20260506123144 54 108 0.0 2.0 0.00 0.00 0.00 40 1017.5
20260506121657 54 291 0.0 1.0 0.00 0.00 0.00 41 1017.2
20260506120134 54 135 1.0 2.0 0.00 0.00 0.00 40 1016.9
20260506114627 55 286 1.0 2.0 0.00 0.00 0.00 40 1016.8
20260506113140 56 294 1.0 4.0 0.00 0.00 0.00 37 1016.7
20260506111633 56 33 3.0 5.0 0.00 0.00 0.00 39 1016.6
20260506110144 52 100 1.0 3.0 0.00 0.00 0.00 46 1016.5
20260506104637 52 44 0.0 2.0 0.00 0.00 0.00 45 1016.5
20260506103125 49 68 1.0 2.0 0.00 0.00 0.00 51 1016.3
20260506101633 50 73 0.0 2.0 0.00 0.00 0.00 50 1016.2
20260506100125 50 85 0.0 0.0 0.00 0.00 0.00 49 1016.1
20260506094634 51 85 0.0 0.0 0.00 0.00 0.00 47 1015.9
20260506093128 53 79 0.0 0.0 0.00 0.00 0.00 43 1015.9
20260506091636 54 83 0.0 0.0 0.00 0.00 0.00 41 1015.9
20260506090130 57 17 0.0 0.0 0.00 0.00 0.00 38 1015.7
20260506084640 59 256 0.0 2.0 0.00 0.00 0.00 35 1015.5
20260506083129 60 283 2.0 6.0 0.00 0.00 0.00 33 1015.6
20260506081643 59 270 0.0 5.0 0.00 0.00 0.00 34 1015.5
20260506080132 58 129 2.0 5.0 0.00 0.00 0.00 35 1015.5
20260506073135 56 108 1.0 3.0 0.00 0.00 0.00 35 1015.5
20260506071625 58 285 0.0 0.0 0.00 0.00 0.00 32 1015.2
20260506070200 59 283 1.0 5.0 0.00 0.00 0.00 31 1015.0
20260506061653 58 116 2.0 3.0 0.00 0.00 0.00 34 1014.5
20260506060141 58 128 1.0 2.0 0.00 0.00 0.00 35 1014.3
20260506050123 60 160 3.0 5.0 0.00 0.00 0.00 36 1014.1
20260506044633 60 163 1.0 3.0 0.00 0.00 0.00 36 1014.0
20260506043126 61 206 1.0 3.0 0.00 0.00 0.00 35 1013.8
20260506041633 61 140 0.0 1.0 0.00 0.00 0.00 37 1013.6
20260506040126 61 131 0.0 3.0 0.00 0.00 0.00 38 1013.4
20260506034657 60 112 0.0 0.0 0.00 0.00 0.00 39 1013.1
20260506033129 61 125 0.0 0.0 0.00 0.00 0.00 36 1012.9
20260506031637 61 107 0.0 0.0 0.00 0.00 0.00 37 1012.8
20260506030126 61 107 0.0 1.0 0.00 0.00 0.00 37 1012.7
20260506024701 61 107 0.0 2.0 0.00 0.00 0.00 37 1012.6
20260506023150 62 107 0.0 2.0 0.00 0.00 0.00 36 1012.5
20260506021637 65 118 1.0 1.0 0.00 0.00 0.00 32 1012.4
20260506020129 67 236 0.0 1.0 0.00 0.00 0.00 29 1012.3
20260506014638 69 168 1.0 2.0 0.00 0.00 0.00 28 1012.2
20260506013132 70 229 1.0 3.0 0.00 0.00 0.00 27 1012.1
20260506011639 70 246 1.0 5.0 0.00 0.00 0.00 27 1012.2
20260506010133 71 222 2.0 8.0 0.00 0.00 0.00 26 1012.1
20260506004622 72 237 7.0 12.0 0.00 0.00 0.00 25 1012.3
20260506003132 72 261 5.0 14.0 0.00 0.00 0.00 25 1012.1
20260506001627 72 234 8.0 13.0 0.00 0.00 0.00 24 1012.2
20260506000204 73 241 10.0 14.0 0.00 0.00 0.00 23 1012.2
20260505234659 72 209 4.0 9.0 0.00 0.00 0.00 27 1012.2
20260505233150 72 207 8.0 14.0 0.00 0.00 0.00 27 1012.2
20260505231621 72 225 7.0 12.0 0.00 0.00 0.00 28 1012.2
20260505230138 72 217 8.0 15.0 0.00 0.00 0.00 28 1012.3
20260505224628 73 239 8.0 16.0 0.00 0.00 0.00 28 1012.8
20260505223142 72 263 10.0 15.0 0.00 0.00 0.00 29 1012.9
20260505221652 72 210 9.0 17.0 0.00 0.00 0.00 29 1013.2
20260505220140 72 207 10.0 18.0 0.00 0.00 0.00 29 1013.4
20260505214655 71 248 15.0 21.0 0.00 0.00 0.00 30 1013.6